GPS BIIRM-7 (PRN 04)

Last updated on June 21, 2016, 5:38 p.m. UTC

1 34661U 09014A   16173.46195640 -.00000058  00000-0  00000+0 0  9990
2 34661  56.3412 356.1587 0083260  50.2994 323.5383  2.00568334 53136
UTC
Height (km)
Latitude
Longitude
Inclination
Orbital Period
UTC large
Height (km)
Speed (km/s)
/
Latitude / Longitude
Inclination (degrees)
Orbital Period (minutes)
Azimuth
Elevation
Range (km)
Doppler Factor
iOS Compass Heading
iOS Angle